H1 CPF 2 NER 2025 9 25 9 268 01 glonass141 H2 1908801 9141 44850 2025 9 25 0 0 0 2025 9 28 23 45 0 900 1 1 0 0 0 1 H9 10 0 60943 0.00000 0 -9275043.485 6786807.628 22797279.285 10 0 60943 900.00000 0 -9907325.471 4024524.262 23181502.387 10 0 60943 1800.00000 0 -10750770.575 1298483.894 23116658.799 10 0 60943 2700.00000 0 -11783406.907 -1323856.591 22603912.503 10 0 60943 3600.00000 0 -12971858.974 -3780220.870 21653083.375 10 0 60943 4500.00000 0 -14272682.259 -6015858.760 20282467.780 10 0 60943 5400.00000 0 -15634138.447 -7985577.358 18518497.495 10 0 60943 6300.00000 0 -16998338.628 -9655374.220 16395242.256 10 0 60943 7200.00000 0 -18303666.179 -11003605.121 13953764.168 10 0 60943 8100.00000 0 -19487378.907 -12021637.913 11241334.988 10 0 60943 9000.00000 0 -20488281.953 -12713965.134 8310530.142 10 0 60943 9900.00000 0 -21249359.277 -13097770.414 5218215.978 10 0 60943 10800.00000 0 -21720252.630 -13201966.700 2024449.235 10 0 60943 11700.00000 0 -21859482.652 -13065746.593 -1208690.181 10 0 60943 12600.00000 0 -21636317.122 -12736705.974 -4418310.186 10 0 60943 13500.00000 0 -21032205.901 -12268620.466 -7541937.137 10 0 60943 14400.00000 0 -20041720.198 -11718969.318 -10518741.242 10 0 60943 15300.00000 0 -18672954.799 -11146312.403 -13290731.726 10 0 60943 16200.00000 0 -16947374.647 -10607632.435 -15803897.318 10 0 60943 17100.00000 0 -14899110.878 -10155756.185 -18009268.708 10 0 60943 18000.00000 0 -12573734.941 -9836965.111 -19863881.282 10 0 60943 18900.00000 0 -10026561.604 -9688897.653 -21331618.659 10 0 60943 19800.00000 0 -7320551.668 -9738832.917 -22383920.156 10 0 60943 20700.00000 0 -4523902.136 -10002429.002 -23000338.213 10 0 60943 21600.00000 0 -1707424.641 -10482969.735 -23168935.008 10 0 60943 22500.00000 0 1058178.340 -11171151.782 -22886510.847 10 0 60943 23400.00000 0 3705025.810 -12045421.070 -22158660.261 10 0 60943 24300.00000 0 6170646.245 -13072844.040 -20999655.268 10 0 60943 25200.00000 0 8400333.890 -14210476.624 -19432158.594 10 0 60943 26100.00000 0 10349175.875 -15407172.731 -17486773.028 10 0 60943 27000.00000 0 11983666.849 -16605755.514 -15201436.217 10 0 60943 27900.00000 0 13282845.226 -17745459.434 -12620673.256 10 0 60943 28800.00000 0 14238905.437 -18764539.786 -9794722.148 10 0 60943 29700.00000 0 14857262.649 -19602939.414 -6778549.730 10 0 60943 30600.00000 0 15156069.457 -20204900.100 -3630777.687 10 0 60943 31500.00000 0 15165207.059 -20521408.587 -412540.063 10 0 60943 32400.00000 0 14924795.371 -20512374.404 2813705.132 10 0 60943 33300.00000 0 14483286.555 -20148448.081 5985386.874 10 0 60943 34200.00000 0 13895223.649 -19412403.683 9041031.016 10 0 60943 35100.00000 0 13218759.656 -18300027.947 11921445.778 10 0 60943 36000.00000 0 12513042.068 -16820479.029 14570860.286 10 0 60943 36900.00000 0 11835572.995 -14996099.995 16937994.734 10 0 60943 37800.00000 0 11239655.622 -12861694.755 18977042.344 10 0 60943 38700.00000 0 10772033.741 -10463296.244 20648545.238 10 0 60943 39600.00000 0 10470822.771 -7856477.430 21920148.374 10 0 60943 40500.00000 0 10363818.357 -5104274.312 22767218.108 10 0 60943 41400.00000 0 10467252.934 -2274805.728 23173314.374 10 0 60943 42300.00000 0 10785052.093 561312.874 23130508.022 10 0 60943 43200.00000 0 11308622.025 3333656.263 22639537.475 10 0 60943 44100.00000 0 12017177.531 5974667.265 21709801.578 10 0 60943 45000.00000 0 12878597.765 8422216.194 20359188.196 10 0 60943 45900.00000 0 13850775.137 10621937.089 18613740.962 10 0 60943 46800.00000 0 14883402.250 12529244.805 16507169.335 10 0 60943 47700.00000 0 15920123.299 14110949.669 14080210.045 10 0 60943 48600.00000 0 16900960.826 15346402.747 11379850.831 10 0 60943 49500.00000 0 17764916.665 16228123.882 8458430.155 10 0 60943 50400.00000 0 18452638.025 16761885.963 5372629.284 10 0 60943 51300.00000 0 18909036.216 16966251.545 2182375.616 10 0 60943 52200.00000 0 19085746.887 16871581.012 -1050321.786 10 0 60943 53100.00000 0 18943326.739 16518553.842 -4262581.565 10 0 60943 54000.00000 0 18453092.372 15956265.444 -7391880.307 10 0 60943 54900.00000 0 17598521.777 15239980.271 -10377278.795 10 0 60943 55800.00000 0 16376157.368 14428636.843 -13160619.262 10 0 60943 56700.00000 0 14795970.602 13582211.058 -15687669.149 10 0 60943 57600.00000 0 12881171.116 12759050.410 -17909187.973 10 0 60943 58500.00000 0 10667467.068 12013292.927 -19781895.479 10 0 60943 59400.00000 0 8201806.699 11392481.050 -21269321.499 10 0 60943 60300.00000 0 5540653.237 10935472.146 -22342520.486 10 0 60943 61200.00000 0 2747865.024 10670734.555 -22980636.592 10 0 60943 62100.00000 0 -107730.622 10615101.439 -23171308.380 10 0 60943 63000.00000 0 -2954968.528 10773035.021 -22910905.548 10 0 60943 63900.00000 0 -5723071.959 11136431.975 -22204593.487 10 0 60943 64800.00000 0 -8344360.540 11684977.643 -21066224.927 10 0 60943 65700.00000 0 -10756827.252 12387033.431 -19518061.349 10 0 60943 66600.00000 0 -12906477.639 13201019.183 -17590330.142 10 0 60943 67500.00000 0 -14749334.568 14077231.334 -15320626.713 10 0 60943 68400.00000 0 -16253026.161 14960019.405 -12753173.697 10 0 60943 69300.00000 0 -17397892.050 15790228.235 -9937952.261 10 0 60943 70200.00000 0 -18177563.557 16507802.358 -6929722.939 10 0 60943 71100.00000 0 -18598995.512 17054442.176 -3786955.540 10 0 60943 72000.00000 0 -18681950.447 17376199.636 -570689.456 10 0 60943 72900.00000 0 -18457958.875 17425903.848 2656653.070 10 0 60943 73800.00000 0 -17968801.233 17165314.501 5832477.410 10 0 60943 74700.00000 0 -17264576.845 16566912.587 8895227.091 10 0 60943 75600.00000 0 -16401442.367 15615253.323 11785571.066 10 0 60943 76500.00000 0 -15439115.502 14307824.689 14447545.098 10 0 60943 77400.00000 0 -14438249.230 12655375.629 16829625.747 10 0 60943 78300.00000 0 -13457786.711 10681700.084 18885717.079 10 0 60943 79200.00000 0 -12552407.330 8422885.415 20576032.082 10 0 60943 80100.00000 0 -11770170.281 5926055.858 21867852.861 10 0 60943 81000.00000 0 -11150453.503 3247662.173 22736156.050 10 0 60943 81900.00000 0 -10722273.468 451387.142 23164092.318 10 0 60943 82800.00000 0 -10503055.454 -2394247.816 23143311.387 10 0 60943 83700.00000 0 -10497905.406 -5218477.498 22674126.599 10 0 60943 84600.00000 0 -10699413.856 -7950983.566 21765515.784 10 0 60943 85500.00000 0 -11088000.516 -10524571.177 20434957.832 10 0 60944 0.00000 0 -11632785.823 -12877721.900 18708107.432 10 0 60944 900.00000 0 -12292954.247 -14956919.358 16618311.995 10 0 60944 1800.00000 0 -13019552.534 -16718648.575 14205981.099 10 0 60944 2700.00000 0 -13757649.419 -18130990.330 11517816.137 10 0 60944 3600.00000 0 -14448766.141 -19174740.791 8605915.923 10 0 60944 4500.00000 0 -15033476.166 -19844010.613 5526773.690 10 0 60944 5400.00000 0 -15454064.506 -20146277.688 2340184.322 10 0 60944 6300.00000 0 -15657133.867 -20101890.846 -891917.264 10 0 60944 7200.00000 0 -15596046.560 -19743044.926 -4106663.847 10 0 60944 8100.00000 0 -15233097.495 -19112270.207 -7241485.684 10 0 60944 9000.00000 0 -14541324.655 -18260499.977 -10235337.561 10 0 60944 9900.00000 0 -13505878.552 -17244798.184 -13029898.062 10 0 60944 10800.00000 0 -12124890.865 -16125843.823 -15570716.527 10 0 60944 11700.00000 0 -10409803.691 -14965279.180 -17808284.215 10 0 60944 12600.00000 0 -8385143.911 -13823034.936 -19699007.775 10 0 60944 13500.00000 0 -6087750.787 -12754746.033 -21206065.312 10 0 60944 14400.00000 0 -3565488.202 -11809368.204 -22300127.904 10 0 60944 15300.00000 0 -875494.875 -11027096.283 -22959932.279 10 0 60944 16200.00000 0 1917954.635 -10437672.346 -23172693.604 10 0 60944 17100.00000 0 4745888.919 -10059154.895 -22934350.570 10 0 60944 18000.00000 0 7537276.962 -9897200.540 -22249638.463 10 0 60944 18900.00000 0 10221753.687 -9944887.681 -21131989.269 10 0 60944 19800.00000 0 12732320.368 -10183088.660 -19603261.331 10 0 60944 20700.00000 0 15007907.615 -10581373.564 -17693304.380 10 0 60944 21600.00000 0 16995694.681 -11099406.355 -15439368.966 10 0 60944 22500.00000 0 18653089.190 -11688773.265 -12885372.336 10 0 60944 23400.00000 0 19949285.785 -12295165.162 -10081035.604 10 0 60944 24300.00000 0 20866340.037 -12860820.855 -7080909.546 10 0 60944 25200.00000 0 21399714.385 -13327127.359 -3943308.472 10 0 60944 26100.00000 0 21558275.097 -13637266.816 -729173.438 10 0 60944 27000.00000 0 21363742.280 -13738797.969 2499112.720 10 0 60944 27900.00000 0 20849617.891 -13586063.155 5678935.222 10 0 60944 28800.00000 0 20059638.343 -13142319.351 8748658.427 10 0 60944 29700.00000 0 19045818.049 -12381503.642 11648814.780 10 0 60944 30600.00000 0 17866166.953 -11289558.996 14323248.967 10 0 60944 31500.00000 0 16582178.337 -9865264.747 16720195.704 10 0 60944 32400.00000 0 15256192.283 -8120536.839 18793271.182 10 0 60944 33300.00000 0 13948744.901 -6080184.884 20502360.053 10 0 60944 34200.00000 0 12716013.582 -3781135.499 21814381.909 10 0 60944 35100.00000 0 11607464.222 -1271153.199 22703923.584 10 0 60944 36000.00000 0 10663797.732 1392889.325 23153726.025 10 0 60944 36900.00000 0 9915280.700 4147121.380 23155017.017 10 0 60944 37800.00000 0 9380529.160 6923079.173 22707683.708 10 0 60944 38700.00000 0 9065795.836 9650307.680 21820281.508 10 0 60944 39600.00000 0 8964790.531 12259053.405 20509878.694 10 0 60944 40500.00000 0 9059041.440 14682937.993 18801738.823 10 0 60944 41400.00000 0 9318782.844 16861503.032 16728845.855 10 0 60944 42300.00000 0 9704332.728 18742521.117 14331279.769 10 0 60944 43200.00000 0 10167903.335 20283977.445 11655453.303 10 0 60944 44100.00000 0 10655769.305 21455639.286 8753223.199 10 0 60944 45000.00000 0 11110702.551 22240147.402 5680892.124 10 0 60944 45900.00000 0 11474571.388 22633583.080 2498119.856 10 0 60944 46800.00000 0 11690993.789 22645486.320 -733235.470 10 0 60944 47700.00000 0 11707931.862 22298323.673 -3950323.356 10 0 60944 48600.00000 0 11480116.550 21626427.639 -7090530.215 10 0 60944 49500.00000 0 10971198.347 20674452.025 -10092707.152 10 0 60944 50400.00000 0 10155531.159 19495408.460 -12898371.191 10 0 60944 51300.00000 0 9019511.903 18148367.242 -15452855.396 10 0 60944 52200.00000 0 7562417.245 16695920.159 -17706384.331 10 0 60944 53100.00000 0 5796700.366 15201513.116 -19615052.856 10 0 60944 54000.00000 0 3747733.655 13726761.888 -21141688.426 10 0 60944 54900.00000 0 1453006.845 12328864.884 -22256579.603 10 0 60944 55800.00000 0 -1039186.658 11058222.509 -22938056.337 10 0 60944 56700.00000 0 -3671520.854 9956363.578 -23172910.798 10 0 60944 57600.00000 0 -6379791.911 9054265.960 -22956650.793 10 0 60944 58500.00000 0 -9095366.699 8371141.619 -22293581.286 10 0 60944 59400.00000 0 -11747822.969 7913736.323 -21196712.908 10 0 60944 60300.00000 0 -14267671.114 7676172.309 -19687499.848 10 0 60944 61200.00000 0 -16589044.078 7640339.150 -17795412.746 10 0 60944 62100.00000 0 -18652243.578 7776814.820 -15557355.517 10 0 60944 63000.00000 0 -20406036.909 8046276.595 -13016937.955 10 0 60944 63900.00000 0 -21809609.208 8401340.779 -10223618.853 10 0 60944 64800.00000 0 -22834090.704 8788752.251 -7231736.841 10 0 60944 65700.00000 0 -23463596.384 9151830.263 -4099448.279 10 0 60944 66600.00000 0 -23695736.070 9433066.266 -887593.412 10 0 60944 67500.00000 0 -23541575.231 9576763.406 2341486.808 10 0 60944 68400.00000 0 -23025049.792 9531605.871 5525159.935 10 0 60944 69300.00000 0 -22181861.080 9253049.491 8601713.635 10 0 60944 70200.00000 0 -21057898.609 8705432.800 11511546.305 10 0 60944 71100.00000 0 -19707257.838 7863719.776 14198313.970 10 0 60944 72000.00000 0 -18189936.622 6714801.029 16610011.822 10 0 60944 72900.00000 0 -16569307.011 5258298.779 18699970.342 10 0 60944 73800.00000 0 -14909467.912 3506841.621 20427747.792 10 0 60944 74700.00000 0 -13272588.659 1485796.996 21759902.917 10 0 60944 75600.00000 0 -11716353.480 -767528.394 22670634.091 10 0 60944 76500.00000 0 -10291612.391 -3205188.241 23142273.507 10 0 60944 77400.00000 0 -9040335.337 -5770343.898 23165627.617 10 0 60944 78300.00000 0 -7993953.855 -8399388.522 22740157.578 10 0 60944 79200.00000 0 -7172158.538 -11024361.908 21873996.212 10 0 60944 80100.00000 0 -6582201.983 -13575557.694 20583800.623 10 0 60944 81000.00000 0 -6218736.112 -15984216.501 18894442.467 10 0 60944 81900.00000 0 -6064190.814 -18185194.607 16838540.635 10 0 60944 82800.00000 0 -6089678.468 -20119498.199 14455843.981 10 0 60944 83700.00000 0 -6256386.963 -21736578.244 11792474.605 10 0 60944 84600.00000 0 -6517403.260 -22996290.355 8900044.911 10 0 60944 85500.00000 0 -6819891.208 -23870437.370 5834664.508 10 0 60945 0.00000 0 -7107531.945 -24343829.360 2655855.666 10 0 60945 900.00000 0 -7323123.810 -24414815.878 -574603.658 10 0 60945 1800.00000 0 -7411230.866 -24095266.599 -3793882.359 10 0 60945 2700.00000 0 -7320767.422 -23410001.141 -6939326.043 10 0 60945 3600.00000 0 -7007407.346 -22395690.707 -9949685.229 10 0 60945 4500.00000 0 -6435714.557 -21099277.842 -12766318.486 10 0 60945 5400.00000 0 -5580902.624 -19575980.823 -15334345.648 10 0 60945 6300.00000 0 -4430147.063 -17886967.140 -17603727.475 10 0 60945 7200.00000 0 -2983393.033 -16096794.637 -19530249.672 10 0 60945 8100.00000 0 -1253622.644 -14270728.776 -21076391.309 10 0 60945 9000.00000 0 733430.828 -12472049.603 -22212060.240 10 0 60945 9900.00000 0 2940110.941 -10759462.256 -22915180.920 10 0 60945 10800.00000 0 5318174.355 -9184720.106 -23172123.248 10 0 60945 11700.00000 0 7810579.938 -7790560.371 -22977964.319 10 0 60945 12600.00000 0 10353656.079 -6609038.417 -22336578.421 10 0 60945 13500.00000 0 12879555.745 -5660329.874 -21260554.003 10 0 60945 14400.00000 0 15318896.742 -4952049.625 -19770939.813 10 0 60945 15300.00000 0 17603476.961 -4479114.790 -17896825.702 10 0 60945 16200.00000 0 19668951.301 -4224155.698 -15674766.829 10 0 60945 17100.00000 0 21457358.785 -4158455.711 -13148063.002 10 0 60945 18000.00000 0 22919394.688 -4243378.463 -10365907.768 10 0 60945 18900.00000 0 24016333.422 -4432220.589 -7382424.320 10 0 60945 19800.00000 0 24721522.667 -4672410.238 -4255607.501 10 0 60945 20700.00000 0 25021387.396 -4907957.255 -1046192.985 10 0 60945 21600.00000 0 24915903.030 -5082050.567 2183523.964 10 0 60945 22500.00000 0 24418519.372 -5139692.427 5370896.935 10 0 60945 23400.00000 0 23555539.846 -5030257.898 8454140.382 10 0 60945 24300.00000 0 22364983.352 -4709871.477 11373521.782 10 0 60945 25200.00000 0 20894977.401 -4143500.702 14072511.192 10 0 60945 26100.00000 0 19201750.487 -3306678.724 16498866.496 10 0 60945 27000.00000 0 17347307.945 -2186783.469 18605634.187 10 0 60945 27900.00000 0 15396888.236 -783819.618 20352047.370 10 0 60945 28800.00000 0 13416305.302 889329.741 21704304.724 10 0 60945 29700.00000 0 11469286.914 2807193.054 22636216.507 10 0 60945 30600.00000 0 9614918.723 4932530.833 23129706.099 10 0 60945 31500.00000 0 7905299.216 7217654.063 23175158.158 10 0 60945 32400.00000 0 6383501.901 9606187.368 22771607.023 10 0 60945 33300.00000 0 5081928.426 12035205.606 21926761.728 10 0 60945 34200.00000 0 4021120.377 14437657.038 20656866.671 10 0 60945 35100.00000 0 3209078.691 16744974.252 18986399.770 10 0 60945 36000.00000 0 2641118.863 18889765.901 16947612.741 10 0 60945 36900.00000 0 2300268.057 20808478.391 14579920.991 10 0 60945 37800.00000 0 2158187.776 22443917.341 11929153.464 10 0 60945 38700.00000 0 2176583.730 23747523.808 9046675.573 10 0 60945 39600.00000 0 2309043.995 24681309.763 5988401.081 10 0 60945 40500.00000 0 2503228.202 25219371.093 2813711.329 10 0 60945 41400.00000 0 2703315.265 25348913.612 -415697.652 10 0 60945 42300.00000 0 2852605.750 25070747.808 -3637017.556 10 0 60945 43200.00000 0 2896167.936 24399230.368 -6787555.929 10 0 60945 44100.00000 0 2783414.286 23361653.922 -9805965.265 10 0 60945 45000.00000 0 2470497.675 21997109.966 -12633447.995 10 0 60945 45900.00000 0 1922424.128 20354872.473 -15214912.759 10 0 60945 46800.00000 0 1114790.787 18492370.177 -17500058.254 10 0 60945 47700.00000 0 35073.747 16472833.161 -19444362.469 10 0 60945 48600.00000 0 -1316590.316 14362713.200 -21009957.258 10 0 60945 49500.00000 0 -2927163.239 12228986.836 -22166370.667 10 0 60945 50400.00000 0 -4771016.522 10136454.973 -22891122.287 10 0 60945 51300.00000 0 -6810782.382 8145152.630 -23170160.091 10 0 60945 52200.00000 0 -8998709.628 6307977.516 -22998130.489 10 0 60945 53100.00000 0 -11278467.845 4668636.515 -22378476.743 10 0 60945 54000.00000 0 -13587324.490 3259995.382 -21323364.357 10 0 60945 54900.00000 0 -15858603.827 2102899.662 -19853435.453 10 0 60945 55800.00000 0 -18024324.755 1205514.781 -17997397.486 10 0 60945 56700.00000 0 -20017907.226 563211.146 -15791454.886 10 0 60945 57600.00000 0 -21776834.093 158997.074 -13278595.212 10 0 60945 58500.00000 0 -23245157.227 -35520.726 -10507744.286 10 0 60945 59400.00000 0 -24375743.391 -58691.639 -7532807.268 10 0 60945 60300.00000 0 -25132166.475 43046.614 -4411614.810 10 0 60945 61200.00000 0 -25490167.588 217377.526 -1204795.330 10 0 60945 62100.00000 0 -25438622.836 408562.540 2025404.284 10 0 60945 63000.00000 0 -24979979.337 560040.268 5216326.329 10 0 60945 63900.00000 0 -24130142.346 617057.799 8306114.684 10 0 60945 64800.00000 0 -22917819.299 529222.739 11234908.483 10 0 60945 65700.00000 0 -21383349.162 252868.298 13945994.289 10 0 60945 66600.00000 0 -19577066.693 -246868.103 16386894.992 10 0 60945 67500.00000 0 -17557270.297 -994340.013 18510375.179 10 0 60945 68400.00000 0 -15387878.161 -2002132.456 20275344.590 10 0 60945 69300.00000 0 -13135869.930 -3270300.731 21647643.268 10 0 60945 70200.00000 0 -10868619.586 -4786139.796 22600694.389 10 0 60945 71100.00000 0 -8651229.318 -6524494.733 23116013.156 10 0 60945 72000.00000 0 -6543973.922 -8448600.489 23183562.663 10 0 60945 72900.00000 0 -4599960.510 -10511417.474 22801950.282 10 0 60945 73800.00000 0 -2863099.487 -12657409.202 21978460.767 10 0 60945 74700.00000 0 -1366470.017 -14824689.881 20728924.995 10 0 60945 75600.00000 0 -131147.155 -16947454.499 19077426.036 10 0 60945 76500.00000 0 834461.049 -18958591.917 17055847.032 10 0 60945 77400.00000 0 1534739.008 -20792373.425 14703268.264 10 0 60945 78300.00000 0 1986446.355 -22387105.520 12065223.587 10 0 60945 79200.00000 0 2217775.274 -23687636.447 9192829.239 10 0 60945 80100.00000 0 2266921.736 -24647611.455 6141800.767 10 0 60945 81000.00000 0 2180230.603 -25231381.595 2971376.311 10 0 60945 81900.00000 0 2009992.823 -25415484.888 -256833.253 10 0 60945 82800.00000 0 1811988.078 -25189636.287 -3480044.901 10 0 60945 83700.00000 0 1642877.480 -24557183.390 -6635530.935 10 0 60945 84600.00000 0 1557557.705 -23535007.335 -9661848.668 10 0 60945 85500.00000 0 1606589.979 -22152871.951 -12500047.242 10 0 60946 0.00000 0 1833814.372 -20452247.885 -15094826.671 10 0 60946 900.00000 0 2274252.287 -18484659.769 -17395626.707 10 0 60946 1800.00000 0 2952387.312 -16309628.198 -19357619.824 10 0 60946 2700.00000 0 3880899.141 -13992290.148 -20942592.788 10 0 60946 3600.00000 0 5059905.236 -11600800.307 -22119695.568 10 0 60946 4500.00000 0 6476743.498 -9203621.904 -22866044.177 10 0 60946 5400.00000 0 8106306.027 -6866821.008 -23167165.462 10 0 60946 6300.00000 0 9911910.562 -4651477.716 -23017275.451 10 0 60946 7200.00000 0 11846673.377 -2611322.379 -22419386.222 10 0 60946 8100.00000 0 13855326.138 -790695.183 -21385239.735 10 0 60946 9000.00000 0 15876400.576 777086.571 -19935070.472 10 0 60946 9900.00000 0 17844689.212 2070886.511 -18097202.080 10 0 60946 10800.00000 0 19693878.933 3082385.813 -15907486.455 10 0 60946 11700.00000 0 21359246.932 3816173.760 -13408596.705 10 0 60946 12600.00000 0 22780306.009 4289290.596 -10649188.335 10 0 60946 13500.00000 0 23903288.481 4530244.137 -7682945.508 10 0 60946 14400.00000 0 24683364.888 4577543.691 -4567531.425 10 0 60946 15300.00000 0 25086504.898 4477815.008 -1363463.767 10 0 60946 16200.00000 0 25090903.084 4283577.407 1867062.532 10 0 60946 17100.00000 0 24687910.549 4050778.205 5061382.032 10 0 60946 18000.00000 0 23882434.241 3836189.395 8157571.427 10 0 60946 18900.00000 0 22692788.075 3694776.977 11095644.638 10 0 60946 19800.00000 0 21150002.836 3677154.077 13818707.534 10 0 60946 20700.00000 0 19296624.274 3827225.122 16274050.406 10 0 60946 21600.00000 0 17185049.856 4180119.998 18414157.929 10 0 60946 22500.00000 0 14875473.409 4760504.831 20197618.048 10 0 60946 23400.00000 0 12433522.858 5581340.128 21589913.346 10 0 60946 24300.00000 0 9927688.453 6643138.471 22564080.695 10 0 60946 25200.00000 0 7426647.220 7933753.254 23101227.495 10 0 60946 26100.00000 0 4996593.363 9428708.128 23190895.255 10 0 60946 27000.00000 0 2698683.951 11092054.604 22831263.943 10 0 60946 27900.00000 0 586704.380 12877723.599 22029193.182 10 0 60946 28800.00000 0 -1294950.724 14731316.306 20800099.062 10 0 60946 29700.00000 0 -2912898.393 16592261.585 19167668.138 10 0 60946 30600.00000 0 -4245923.331 18396251.635 17163412.973 10 0 60946 31500.00000 0 -5285621.322 20077855.784 14826076.415 10 0 60946 32400.00000 0 -6036503.324 21573204.257 12200894.698 10 0 60946 33300.00000 0 -6515555.849 22822630.279 9338732.175 10 0 60946 34200.00000 0 -6751275.850 23773159.804 6295103.341 10 0 60946 35100.00000 0 -6782220.522 24380743.902 3129100.240 10 0 60946 36000.00000 0 -6655133.043 24612139.049 -97754.351 10 0 60946 36900.00000 0 -6422723.508 24446354.821 -3322705.602 10 0 60946 37800.00000 0 -6141199.352 23875606.518 -6482993.412 10 0 60946 38700.00000 0 -5867650.537 22905730.972 -9517082.615 10 0 60946 39600.00000 0 -5657401.360 21556046.535 -12365871.559 10 0 60946 40500.00000 0 -5561442.427 19858661.916 -14973854.307 10 0 60946 41400.00000 0 -5624053.055 17857262.051 -17290212.693 10 0 60946 42300.00000 0 -5880716.362 15605421.535 -19269815.817 10 0 60946 43200.00000 0 -6356416.729 13164516.292 -20874106.717 10 0 60946 44100.00000 0 -7064392.941 10601321.177 -22071858.361 10 0 60946 45000.00000 0 -8005400.773 7985394.464 -22839783.957 10 0 60946 45900.00000 0 -9167516.939 5386358.971 -23162989.701 10 0 60946 46800.00000 0 -10526493.236 2871193.683 -23035261.378 10 0 60946 47700.00000 0 -12046646.251 501649.046 -22459179.645 10 0 60946 48600.00000 0 -13682245.291 -1668106.533 -21446062.273 10 0 60946 49500.00000 0 -15379340.096 -3593511.404 -20015735.031 10 0 60946 50400.00000 0 -17077951.354 -5241223.203 -18196136.268 10 0 60946 51300.00000 0 -18714531.737 -6590253.313 -16022763.470 10 0 60946 52200.00000 0 -20224593.884 -7632577.715 -13537973.090 10 0 60946 53100.00000 0 -21545394.775 -8373200.711 -10790147.872 10 0 60946 54000.00000 0 -22618563.670 -8829671.177 -7832748.352 10 0 60946 54900.00000 0 -23392563.328 -9031073.924 -4723267.538 10 0 60946 55800.00000 0 -23824881.332 -9016540.763 -1522109.564 10 0 60946 56700.00000 0 -23883859.893 -8833345.916 1708585.438 10 0 60946 57600.00000 0 -23550087.836 -8534667.653 4906147.147 10 0 60946 58500.00000 0 -22817296.954 -8177111.728 8008587.918 10 0 60946 59400.00000 0 -21692725.792 -7818101.872 10955799.259 10 0 60946 60300.00000 0 -20196936.184 -7513247.707 13690709.012 10 0 60946 61200.00000 0 -18363090.600 -7313801.032 16160377.376 10 0 60946 62100.00000 0 -16235720.682 -7264307.318 18317011.350 10 0 60946 63000.00000 0 -13869038.152 -7400550.790 20118878.998 10 0 60946 63900.00000 0 -11324857.940 -7747879.038 21531106.949 10 0 60946 64800.00000 0 -8670219.041 -8319977.166 22526346.860 10 0 60946 65700.00000 0 -5974800.723 -9118142.878 23085298.965 10 0 60946 66600.00000 0 -3308239.877 -10131093.211 23197083.408 10 0 60946 67500.00000 0 -737459.207 -11335311.757 22859452.573 10 0 60946 68400.00000 0 1675884.600 -12695923.036 22078840.417 10 0 60946 69300.00000 0 3877728.310 -14168058.971 20870247.393 10 0 60946 70200.00000 0 5823609.876 -15698662.026 19256962.414 10 0 60946 71100.00000 0 7480274.016 -17228651.387 17270126.050 10 0 60946 72000.00000 0 8826809.396 -18695363.131 14948142.036 10 0 60946 72900.00000 0 9855270.325 -20035163.496 12335947.014 10 0 60946 73800.00000 0 10570757.008 -21186126.554 9484151.219 10 0 60946 74700.00000 0 10990950.819 -22090664.195 6448065.601 10 0 60946 75600.00000 0 11145123.921 -22697997.605 3286633.394 10 0 60946 76500.00000 0 11072664.725 -22966365.467 61286.411 10 0 60946 77400.00000 0 10821181.379 -22864874.573 -3165251.670 10 0 60946 78300.00000 0 10444263.648 -22374913.289 -6330191.325 10 0 60946 79200.00000 0 9998998.406 -21491066.487 -9371907.867 10 0 60946 80100.00000 0 9543344.751 -20221491.642 -12231151.711 10 0 60946 81000.00000 0 9133481.052 -18587738.638 -14852213.495 10 0 60946 81900.00000 0 8821237.585 -16624019.567 -17184020.146 10 0 60946 82800.00000 0 8651724.814 -14375958.278 -19181139.443 10 0 60946 83700.00000 0 8661259.063 -11898871.657 -20804672.670 10 0 60946 84600.00000 0 8875674.437 -9255654.446 -22023017.383 10 0 60946 85500.00000 0 9309093.319 -6514356.263 -22812485.143 99